User: anonymous   Login
Location: *
(50.3440°N, 18.6237°E)
Time: 16:47:05
(UTC+00:00)
Language:

COSMOS 2428 - Orbit

View from above orbital plane
View from above orbital plane
View from above satellite
View from above satellite

Ground track
Ground track

The orbit data is extracted from the following two-line orbital elements,

1 31792U 07029A   21063.29515684  .00000001  00000-0  26522-4 0  9994
2 31792  70.8904  86.9930 0005039  16.9116 343.2172 14.12237878705555
Epoch (UTC): 04 March 2021 07:05:01
Eccentricity: 0.0005039
inclination: 70.8904°
perigee height: 848 km
apogee height: 855 km
right ascension of ascending node: 86.9930°
argument of perigee: 16.9116°
revolutions per day: 14.12237878
mean anomaly at epoch: 343.2172°
orbit number at epoch: 70555

The dashed part of the orbit path shows where the satellite is in the earth's shadow,  

DLR